Simultaneous Nadir Overpasses (SNOs) Predictions

Prediction of SNOs between AQUA and NOAA-19 Satellite Orbit:

Table of predicted SNOs for the next 14.0 days since TLE Epoch: 3/2/2024
Index Date (AQUA) Time (AQUA) Lat,Lon (AQUA) SZA (AQUA ) Date (NOAA-19) Time (NOAA-19) Lat,Lon (NOAA-19) SZA (NOAA-19 ) Distance(km) Time Diff (sec)
1 03/02/2024 14:35:26 75.87, -43.35 82.78 03/02/2024 14:35:24 75.87, -43.44 82.78 2.42 2
2 03/04/2024 18:26:23 -75.86, 78.99 98.08 03/04/2024 18:25:29 -75.87, 79.08 98.06 2.64 54
3 03/04/2024 19:15:48 75.93,-113.57 81.99 03/04/2024 19:16:31 75.90,-113.56 81.96 3.24 43
4 03/06/2024 23:06:44 -75.90, 8.82 98.89 03/06/2024 23:06:36 -75.87, 8.88 98.92 3.29 8
5 03/09/2024 02:57:40 75.84, 131.29 80.20 03/09/2024 02:56:49 75.82, 131.22 80.20 2.83 51
6 03/09/2024 03:47:04 -75.93, -61.32 99.72 03/09/2024 03:47:42 -75.92, -61.18 99.74 3.88 38
7 03/11/2024 07:37:59 75.86, 61.18 79.36 03/11/2024 07:37:55 75.87, 61.16 79.37 0.81 4
8 03/11/2024 08:27:33 -76.43,-132.98 100.04 03/11/2024 08:28:38 -76.40,-129.62 100.17 88.01 65
9 03/13/2024 11:28:53 -75.83,-176.43 101.53 03/13/2024 11:27:59 -75.84,-176.40 101.52 1.14 54
10 03/13/2024 12:18:18 75.92, -9.05 78.56 03/13/2024 12:19:01 75.91, -8.93 78.54 3.73 43
11 03/15/2024 16:09:11 -75.88, 113.40 102.35 03/15/2024 16:09:05 -75.87, 113.48 102.36 2.40 6



Historial Predications of SNOs between AQUA and NOAA-19
